EHI
3 3 5 8 10 11 12 10 7 6 7 7 6 4 3 1 1 3 7 14 19 21 23 22 19 16 14 11 9 8 7 7 7 8 8 8 8 7 5 4 4 4 3
4 4 5 6 8 10 12 10 7 7 7 7 6 5 3 1 1 3 6 11 16 20 23 25 22 19 17 14 11 9 8 7 8 9 9 9 9 8 7 6 5 4 4
5 5 5 6 8 11 12 11 9 7 6 5 5 5 4 4 5 6 8 9 12 17 22 25 25 23 20 16 13 10 9 9 9 10 10 10 10 9 8 6 6 6 6
6 5 5 7 10 12 11 11 10 8 5 3 4 5 7 8 8 8 9 10 12 15 18 21 24 24 21 19 15 12 11 11 10 9 9 9 8 8 6 5 5 6 6
6 6 7 9 12 12 10 8 8 8 5 3 3 6 10 11 10 9 9 10 11 13 14 18 23 23 21 20 18 16 14 12 10 8 7 6 5 4 4 3 4 4 5
5 7 9 11 11 11 9 7 7 6 5 4 3 5 9 11 13 13 12 10 10 10 11 16 21 20 18 18 18 18 15 13 11 10 8 5 3 2 2 2 3 3 3
5 6 8 9 9 10 10 9 7 6 5 4 3 3 5 8 12 15 14 12 10 8 8 13 17 18 16 15 15 15 15 14 14 13 11 8 4 1 1 1 2 2 2
6 5 6 6 7 9 11 11 9 7 6 5 5 4 5 6 8 10 12 12 9 7 7 10 15 18 17 16 13 13 14 16 16 16 15 13 7 2 1 1 1 1 1
9 8 7 7 8 10 12 12 12 11 9 6 5 6 6 6 7 8 8 8 7 6 6 8 15 20 20 19 17 14 15 16 16 16 16 14 10 4 2 2 1 0 0
12 11 11 12 12 12 13 12 13 15 12 6 5 7 8 8 8 7 6 5 5 7 8 8 11 17 19 20 20 19 17 15 13 13 12 11 8 5 4 4 2 1 0
13 12 15 17 16 15 15 14 14 15 14 9 7 8 8 9 9 8 6 5 5 7 10 9 7 10 15 18 20 20 18 14 10 10 9 7 6 5 5 6 4 2 1
13 14 17 20 20 19 19 18 16 14 13 11 10 10 9 9 10 9 7 6 6 7 8 8 5 5 10 15 17 17 15 10 8 8 7 6 4 4 5 6 4 1 0
14 16 19 23 23 22 21 18 16 15 14 13 13 12 10 10 9 8 7 7 7 7 7 6 5 4 8 13 15 13 10 6 5 4 4 3 2 2 4 5 3 1 0
15 17 20 23 23 22 20 18 16 17 19 17 16 14 13 11 9 8 9 8 6 7 7 6 5 6 9 12 12 10 8 5 2 1 1 1 0 0 2 4 3 1 0
16 18 20 20 21 22 23 23 21 21 23 22 19 18 17 14 10 8 10 10 8 7 7 7 6 8 12 12 10 10 11 6 2 0 0 0 0 0 1 2 2 1 0
18 19 19 19 20 24 28 29 27 24 24 23 21 21 21 19 13 11 13 13 11 9 8 7 8 10 13 11 8 10 12 9 3 0 0 0 0 0 0 1 1 0 0
20 19 18 18 20 23 27 30 27 23 20 21 22 22 23 21 17 16 15 15 14 12 9 8 8 11 13 11 10 11 11 9 6 2 0 0 0 0 0 0 0 0 0
21 20 19 19 18 19 23 23 21 19 18 19 22 23 23 21 19 16 15 14 13 11 9 8 10 12 13 13 14 16 13 11 9 4 1 1 0 0 0 0 0 0 0
22 22 21 20 17 16 18 18 17 18 20 21 23 23 22 21 20 16 14 13 12 9 8 7 8 12 14 14 16 18 16 13 10 6 3 1 0 0 0 0 0 0 0
23 22 20 18 16 14 14 15 16 17 20 22 23 22 21 20 18 16 13 12 11 9 7 5 5 8 12 14 15 15 14 13 12 9 5 2 0 0 0 0 0 0 0
22 20 18 17 14 11 10 12 14 16 18 21 21 20 18 15 12 10 8 9 10 9 7 5 4 6 9 12 12 11 11 11 13 12 9 4 1 1 1 0 0 0 0
21 20 18 16 12 9 7 9 11 14 17 18 17 15 13 9 6 4 3 4 6 6 5 5 6 7 8 9 9 8 8 11 13 13 11 8 4 3 1 0 0 0 0
22 22 19 14 11 9 7 6 8 11 15 15 14 12 10 6 5 4 3 2 3 3 3 5 7 8 9 9 9 6 6 9 12 13 12 10 8 5 3 1 0 0 0
22 21 17 13 10 9 6 3 4 8 12 12 11 10 8 6 6 7 7 7 6 4 2 4 7 8 8 9 9 6 6 7 10 11 12 12 10 8 5 3 1 0 0
21 19 15 12 10 9 5 2 2 6 8 9 9 8 7 6 5 7 10 12 10 6 4 4 5 6 6 6 7 6 6 6 7 9 11 12 11 8 6 3 1 0 0
21 19 14 11 10 10 6 1 2 6 6 7 9 9 6 5 4 6 11 14 11 6 5 4 4 4 4 4 5 6 6 6 6 8 11 12 11 9 6 2 1 0 0
Wind_Speed
1 1 0 0 1 1 2 2 2 1 1 2 3 2 1 1 2 3 5 10 10 9 9 9 8 8 7 7 7 7 8 8 8 7 7 8 8 8 9 9 8 8 8
1 0 0 0 1 0 0 0 1 1 1 1 1 1 1 1 2 3 4 7 9 10 10 9 9 9 8 8 8 8 8 7 7 8 8 8 8 8 9 9 9 8 8
1 1 1 1 0 1 1 1 0 1 2 2 2 1 1 1 2 3 4 4 6 10 11 10 9 9 8 8 8 8 8 8 8 8 9 9 9 9 9 9 9 8 8
0 1 0 0 1 1 1 1 1 1 1 1 1 1 1 1 2 3 4 5 5 6 9 11 11 10 9 9 9 9 8 8 8 9 9 9 10 10 10 9 9 9 8
1 1 1 1 1 1 0 1 1 0 0 1 2 2 2 2 2 2 3 4 5 5 5 9 11 10 10 9 9 8 8 8 8 9 10 10 10 10 10 10 10 9 9
1 1 1 1 1 0 0 1 1 1 1 1 2 1 1 2 2 2 3 2 2 4 5 6 6 7 9 8 8 8 8 8 8 8 8 10 10 10 10 10 10 10 10
1 2 2 1 1 1 0 0 1 1 1 1 1 1 2 2 2 1 1 1 1 2 3 5 4 4 4 8 8 7 8 8 7 7 7 8 9 9 10 10 10 10 9
1 2 1 1 1 1 1 1 1 1 2 1 1 1 1 1 1 1 1 2 1 1 2 4 4 4 4 4 5 7 7 7 7 7 7 7 8 8 9 10 10 10 10
1 2 2 2 1 2 1 2 2 2 2 2 1 1 1 1 1 0 1 1 1 1 1 2 3 4 4 4 5 6 7 6 7 7 7 7 8 8 9 9 10 10 10
2 3 2 2 2 1 2 3 2 2 2 2 1 1 2 0 0 1 1 0 1 1 1 1 1 2 3 3 4 6 8 7 6 6 6 7 7 8 8 9 9 9 10
3 3 3 2 2 2 2 2 1 2 2 2 2 1 1 1 2 1 1 1 1 1 1 1 1 1 2 2 3 5 7 7 6 5 5 6 6 6 8 8 9 9 9
2 2 2 2 2 2 2 2 2 2 2 2 2 2 1 1 1 1 1 1 1 1 1 1 1 1 2 2 3 6 7 7 6 5 5 5 5 5 6 7 8 8 7
1 1 2 2 2 2 2 2 2 2 2 3 3 2 2 2 1 1 1 1 1 1 1 1 2 1 1 2 3 6 5 5 5 5 5 4 4 4 4 5 6 6 6
2 1 2 2 2 2 3 2 2 3 2 3 3 2 2 2 2 1 1 1 1 1 1 2 1 2 2 3 4 6 4 5 5 5 5 4 4 4 4 4 4 5 5
2 1 2 2 2 2 2 2 2 2 2 2 2 2 2 2 2 2 1 2 2 2 2 1 1 1 2 2 6 3 3 5 5 5 5 5 4 4 3 3 3 3 4
2 1 2 2 2 2 2 2 2 2 1 2 2 2 2 2 2 2 2 1 1 2 2 1 1 1 2 2 5 3 2 6 6 6 6 6 6 5 4 4 4 4 4
1 1 2 2 2 2 1 2 2 2 2 2 2 2 3 2 2 2 1 1 1 1 2 2 1 0 1 1 2 2 3 3 3 7 7 7 7 7 6 5 5 4 4
1 2 2 2 3 2 2 2 3 3 3 3 2 2 3 2 2 2 1 1 1 2 2 2 1 1 1 1 1 2 2 2 2 6 8 8 9 8 7 7 6 5 5
2 2 2 2 3 3 2 3 3 3 3 3 3 3 3 2 2 2 2 2 2 2 1 2 2 1 1 1 1 1 2 1 2 3 6 8 8 8 8 7 6 6 5
2 2 2 3 3 3 2 2 3 4 3 3 3 3 3 3 3 3 3 3 2 2 2 2 2 1 1 1 1 1 1 1 1 0 1 3 5 7 7 7 7 7 7
3 2 2 2 3 3 2 2 3 4 3 3 3 4 3 3 3 3 3 2 3 3 2 2 2 1 1 1 1 1 1 1 1 1 1 1 2 3 4 5 6 7 7
2 2 2 2 2 2 3 3 3 4 3 3 3 3 3 2 2 3 4 4 4 4 3 2 2 3 2 2 2 2 1 1 2 1 1 2 1 2 3 3 5 8 8
2 2 2 2 2 2 3 3 4 4 3 3 3 3 4 3 2 2 2 3 4 5 6 4 4 4 3 2 2 2 2 3 3 2 2 2 2 2 3 4 8 9 9
2 2 2 2 2 2 2 3 4 3 3 3 2 2 2 2 2 2 3 2 3 2 4 4 3 4 3 2 2 3 3 2 2 1 2 2 2 2 3 3 8 10 9
1 2 1 1 2 2 2 2 2 3 2 2 2 1 1 1 2 2 2 2 2 2 1 2 3 4 3 3 3 2 2 2 2 2 1 2 2 2 2 3 5 9 10
2 2 2 2 2 1 1 0 1 2 2 2 1 0 0 1 1 1 1 1 2 2 2 2 1 2 3 3 4 4 3 3 2 2 1 1 1 1 1 1 2 3 5
Wind_Direction
60 90 123 205 210 189 187 195 197 178 209 240 233 230 201 129 153 133 147 171 175 178 182 190 195 195 196 197 199 205 204 205 208 209 205 202 200 199 200 201 200 200 201
74 1 121 250 296 319 84 140 205 170 206 243 251 231 166 172 152 146 160 177 186 187 188 191 193 197 200 203 205 202 201 205 208 212 209 206 203 202 205 207 205 203 199
133 249 220 199 263 246 200 198 247 205 217 211 222 226 210 181 176 170 176 185 188 194 192 193 193 196 203 206 205 207 208 208 207 208 211 209 208 205 206 207 205 202 199
163 270 260 203 235 242 205 208 208 222 224 234 232 232 196 193 208 195 194 189 183 184 192 197 196 197 203 208 210 211 210 210 207 208 210 213 211 208 207 208 205 203 202
213 240 266 267 240 248 245 289 92 323 295 282 247 222 209 207 216 220 221 196 181 176 179 190 195 197 201 207 210 212 212 208 208 211 213 215 215 213 209 210 207 206 208
209 260 228 249 258 279 25 16 5 319 292 276 281 278 256 228 206 204 226 200 181 177 176 176 182 199 202 202 208 213 212 210 211 214 218 217 215 212 209 210 209 209 211
221 261 283 262 253 253 253 303 296 279 278 265 300 295 271 249 216 190 206 186 193 181 162 160 169 182 191 203 208 210 210 210 210 212 214 218 216 214 208 209 211 210 210
226 240 258 257 240 231 230 241 255 275 270 231 238 268 283 302 293 220 167 177 173 168 163 177 176 175 186 175 190 202 202 206 214 214 215 215 212 211 211 212 212 212 212
224 270 259 260 262 239 225 225 219 234 256 270 236 235 253 243 296 303 228 138 148 173 178 183 191 184 182 163 169 194 198 206 213 214 215 215 214 213 215 217 215 214 216
227 234 240 245 256 262 263 248 215 238 250 257 257 250 256 284 239 289 281 184 190 190 198 233 211 170 176 158 154 165 182 196 206 215 217 219 219 216 215 217 215 217 218
236 235 230 233 240 242 262 282 279 260 259 268 267 266 274 269 244 224 261 279 288 245 202 219 221 172 163 163 159 159 173 185 193 210 218 219 217 213 212 216 219 220 220
232 238 243 239 238 241 247 264 267 266 270 286 286 280 271 263 254 233 242 253 263 267 248 214 199 193 172 166 161 148 168 180 187 198 206 208 210 211 212 217 217 217 214
248 235 257 257 252 258 246 246 262 271 262 264 271 278 279 270 265 258 240 259 265 272 271 241 205 179 169 129 135 149 166 175 178 183 188 197 205 214 217 214 208 205 206
248 234 238 241 248 261 261 250 242 252 257 258 265 267 268 272 266 256 233 258 284 273 264 263 223 159 150 129 138 158 166 170 174 178 185 193 198 202 205 204 204 201 201
261 257 230 234 244 257 269 272 263 261 266 261 261 263 265 268 272 265 237 214 221 259 270 249 278 163 147 140 152 165 155 170 179 187 190 188 187 187 190 195 200 201 200
286 287 280 267 252 244 252 266 268 267 273 282 264 263 266 266 272 269 257 240 207 218 252 269 240 177 145 141 149 166 167 167 184 189 194 191 187 182 181 185 188 189 191
265 259 272 280 275 261 253 258 268 263 262 274 281 273 261 263 274 284 277 265 243 219 227 268 265 62 111 128 161 184 185 175 181 190 193 194 192 189 185 185 186 185 184
262 256 255 260 265 268 260 257 263 266 257 262 265 268 265 257 259 263 269 250 238 231 203 240 264 231 226 165 195 200 204 195 180 185 193 195 195 193 192 188 187 187 185
259 263 266 264 266 271 268 270 271 274 270 266 261 255 262 260 258 258 250 245 248 248 218 224 247 235 220 209 197 213 210 207 223 190 190 196 197 196 193 190 189 189 188
238 253 259 265 268 271 273 282 285 273 270 271 271 263 261 256 252 250 239 231 240 243 230 224 229 214 200 211 184 216 221 218 230 208 197 186 189 194 189 188 189 191 192
244 251 259 261 264 260 272 292 287 277 279 278 277 275 262 258 251 246 247 227 233 235 233 226 233 230 220 204 226 232 231 252 244 185 190 214 176 187 190 196 196 195 191
261 263 259 260 269 278 301 292 287 287 279 275 277 281 266 258 245 245 242 233 229 227 229 229 232 239 238 225 229 236 221 234 260 220 200 246 202 198 186 191 192 189 192
249 261 261 254 254 272 298 298 293 280 274 269 269 274 277 280 278 277 252 228 230 225 224 226 230 239 242 229 217 233 237 235 244 226 195 239 220 220 206 200 191 193 197
247 251 255 265 264 279 298 302 299 268 264 265 271 269 277 307 301 313 275 255 248 251 242 227 228 240 240 216 202 219 227 251 260 231 187 232 231 232 236 204 197 200 203
251 247 244 260 270 279 290 295 292 272 264 268 261 277 265 261 331 327 286 266 267 272 287 249 234 231 233 229 216 220 233 237 267 263 227 219 235 239 237 224 205 204 207
230 241 247 246 255 258 209 247 283 266 272 272 249 214 265 288 313 318 298 271 262 266 280 283 250 228 226 222 214 216 226 231 249 256 233 213 223 242 265 243 219 198 207